| time (UTC) | temp C | wind direction | speed KPH | gust KPH | rain 1hr cm | rain 24hr cm | rain mn cm | humidity % | barometer mb |
| 20260502181649 | 15 | 301 | 11.3 | 17.7 | 0.00 | 0.00 | 0.05 | 53 | 1009.0 |
| 20260502181144 | 15 | 261 | 9.7 | 12.9 | 0.00 | 0.00 | 0.05 | 53 | 1009.0 |
| 20260502180638 | 15 | 270 | 6.4 | 8.0 | 0.00 | 0.00 | 0.05 | 51 | 1009.0 |
| 20260502180133 | 15 | 265 | 12.9 | 27.4 | 0.00 | 0.00 | 0.05 | 51 | 1008.8 |
| 20260502164010 | 16 | 135 | 17.7 | 24.1 | 0.00 | 0.00 | 0.05 | 51 | 1009.3 |
| 20260502162957 | 16 | 166 | 16.1 | 20.9 | 0.00 | 0.00 | 0.05 | 51 | 1009.4 |
| 20260502162451 | 16 | 180 | 20.9 | 20.9 | 0.00 | 0.00 | 0.05 | 51 | 1009.4 |
| 20260502161946 | 16 | 175 | 16.1 | 24.1 | 0.00 | 0.00 | 0.05 | 52 | 1009.5 |
| 20260502161442 | 16 | 157 | 29.0 | 33.8 | 0.00 | 0.00 | 0.05 | 51 | 1009.4 |
| 20260502160936 | 16 | 153 | 19.3 | 25.7 | 0.00 | 0.00 | 0.05 | 51 | 1009.6 |
| 20260502160431 | 16 | 135 | 24.1 | 27.4 | 0.00 | 0.00 | 0.05 | 49 | 1009.6 |
| 20260502151844 | 16 | 175 | 17.7 | 27.4 | 0.00 | 0.00 | 0.05 | 54 | 1010.3 |
| 20260502151339 | 16 | 171 | 20.9 | 27.4 | 0.00 | 0.00 | 0.05 | 54 | 1010.3 |
| 20260502150833 | 16 | 148 | 20.9 | 27.4 | 0.00 | 0.00 | 0.05 | 54 | 1010.4 |
| 20260502150328 | 16 | 148 | 22.5 | 27.4 | 0.00 | 0.00 | 0.05 | 54 | 1010.4 |
| 20260502130629 | 15 | 180 | 35.4 | 35.4 | 0.00 | 0.00 | 0.05 | 56 | 1012.0 |
| 20260502130124 | 15 | 148 | 30.6 | 33.8 | 0.00 | 0.00 | 0.05 | 56 | 1012.1 |
| 20260502123558 | 15 | 148 | 20.9 | 32.2 | 0.00 | 0.00 | 0.05 | 57 | 1012.4 |
| 20260502123052 | 15 | 135 | 32.2 | 37.0 | 0.00 | 0.00 | 0.05 | 56 | 1012.4 |
| 20260502122548 | 15 | 180 | 24.1 | 33.8 | 0.00 | 0.00 | 0.05 | 57 | 1012.5 |
| 20260502122042 | 15 | 166 | 25.7 | 30.6 | 0.00 | 0.00 | 0.05 | 58 | 1012.7 |
| 20260502121537 | 15 | 148 | 22.5 | 33.8 | 0.00 | 0.00 | 0.05 | 58 | 1012.7 |
| 20260502121032 | 15 | 180 | 29.0 | 30.6 | 0.00 | 0.00 | 0.05 | 58 | 1012.8 |
| 20260502120526 | 15 | 180 | 27.4 | 30.6 | 0.00 | 0.00 | 0.05 | 58 | 1012.8 |
| 20260502115516 | 15 | 171 | 24.1 | 35.4 | 0.00 | 0.00 | 0.05 | 58 | 1013.0 |
| 20260502115011 | 15 | 180 | 27.4 | 30.6 | 0.00 | 0.00 | 0.05 | 58 | 1013.0 |
| 20260502114506 | 15 | 153 | 24.1 | 33.8 | 0.00 | 0.00 | 0.05 | 57 | 1013.1 |
| 20260502114001 | 15 | 180 | 35.4 | 35.4 | 0.00 | 0.00 | 0.05 | 57 | 1013.2 |
| 20260502113456 | 15 | 153 | 24.1 | 33.8 | 0.00 | 0.00 | 0.05 | 58 | 1013.2 |
| 20260502112950 | 15 | 180 | 27.4 | 38.6 | 0.00 | 0.00 | 0.05 | 58 | 1013.3 |
| 20260502112445 | 15 | 180 | 27.4 | 40.2 | 0.00 | 0.00 | 0.05 | 57 | 1013.2 |
| 20260502111940 | 15 | 180 | 27.4 | 40.2 | 0.00 | 0.00 | 0.05 | 58 | 1013.3 |
| 20260502111435 | 14 | 189 | 29.0 | 33.8 | 0.00 | 0.00 | 0.05 | 58 | 1013.2 |
| 20260502110930 | 14 | 198 | 30.6 | 37.0 | 0.00 | 0.00 | 0.05 | 57 | 1013.3 |
| 20260502110424 | 15 | 180 | 33.8 | 33.8 | 0.00 | 0.00 | 0.05 | 57 | 1013.3 |
| 20260502105919 | 15 | 189 | 33.8 | 38.6 | 0.00 | 0.00 | 0.05 | 57 | 1013.3 |
| 20260502105414 | 15 | 189 | 22.5 | 51.5 | 0.00 | 0.00 | 0.05 | 57 | 1013.4 |
| 20260502104909 | 15 | 180 | 35.4 | 45.1 | 0.00 | 0.00 | 0.05 | 57 | 1013.2 |
| 20260502104404 | 15 | 171 | 33.8 | 45.1 | 0.00 | 0.00 | 0.05 | 57 | 1013.5 |
| 20260502103858 | 15 | 189 | 33.8 | 45.1 | 0.00 | 0.00 | 0.05 | 57 | 1013.4 |
| 20260502103353 | 15 | 180 | 33.8 | 35.4 | 0.00 | 0.00 | 0.05 | 56 | 1013.5 |
| 20260502102848 | 15 | 180 | 33.8 | 33.8 | 0.00 | 0.00 | 0.05 | 57 | 1013.5 |
| 20260502102343 | 15 | 180 | 20.9 | 32.2 | 0.00 | 0.00 | 0.05 | 58 | 1013.5 |
| 20260502101838 | 15 | 153 | 25.7 | 37.0 | 0.00 | 0.00 | 0.05 | 57 | 1013.6 |
| 20260502101332 | 15 | 153 | 29.0 | 35.4 | 0.00 | 0.00 | 0.05 | 58 | 1013.7 |
| 20260502100827 | 15 | 180 | 22.5 | 33.8 | 0.00 | 0.00 | 0.05 | 58 | 1013.7 |
| 20260502100322 | 15 | 162 | 29.0 | 35.4 | 0.00 | 0.00 | 0.05 | 58 | 1013.8 |
| 20260502091230 | 14 | 180 | 35.4 | 49.9 | 0.00 | 0.00 | 0.05 | 59 | 1014.2 |
| 20260502090725 | 14 | 144 | 33.8 | 45.1 | 0.00 | 0.00 | 0.05 | 59 | 1014.0 |
| 20260502090220 | 14 | 180 | 37.0 | 40.2 | 0.00 | 0.00 | 0.05 | 59 | 1014.2 |
| 20260502071530 | 13 | 157 | 32.2 | 40.2 | 0.00 | 0.00 | 0.05 | 61 | 1014.5 |
| 20260502071025 | 13 | 175 | 24.1 | 41.8 | 0.00 | 0.00 | 0.05 | 60 | 1014.6 |
| 20260502070520 | 13 | 189 | 24.1 | 48.3 | 0.00 | 0.00 | 0.05 | 60 | 1014.6 |
| 20260502070015 | 13 | 184 | 32.2 | 35.4 | 0.00 | 0.00 | 0.05 | 59 | 1014.6 |
| 20260502065510 | 13 | 180 | 24.1 | 32.2 | 0.00 | 0.00 | 0.05 | 60 | 1014.6 |
| 20260502065004 | 13 | 180 | 27.4 | 32.2 | 0.00 | 0.00 | 0.03 | 59 | 1014.7 |
| 20260502064459 | 14 | 180 | 19.3 | 29.0 | 0.00 | 0.00 | 0.00 | 60 | 1014.7 |
| 20260502063954 | 13 | 171 | 24.1 | 24.1 | 0.00 | 0.00 | 0.00 | 60 | 1014.8 |
| 20260502063449 | 13 | 193 | 16.1 | 25.7 | 0.00 | 0.00 | 0.00 | 61 | 1014.7 |
| 20260502062944 | 13 | 180 | 16.1 | 29.0 | 0.00 | 0.00 | 0.00 | 61 | 1014.7 |
| 20260502062438 | 13 | 180 | 27.4 | 27.4 | 0.00 | 0.00 | 0.00 | 62 | 1014.7 |
| 20260502061933 | 13 | 139 | 20.9 | 32.2 | 0.00 | 0.00 | 0.00 | 62 | 1014.9 |
| 20260502061428 | 13 | 184 | 22.5 | 25.7 | 0.00 | 0.00 | 0.00 | 63 | 1014.9 |
| 20260502060923 | 13 | 166 | 19.3 | 30.6 | 0.00 | 0.00 | 0.00 | 63 | 1015.0 |
| 20260502060418 | 12 | 180 | 22.5 | 25.7 | 0.00 | 0.00 | 0.00 | 63 | 1015.0 |
| 20260502055912 | 12 | 171 | 27.4 | 29.0 | 0.00 | 0.00 | 0.00 | 64 | 1014.8 |
| 20260502055407 | 12 | 171 | 20.9 | 29.0 | 0.00 | 0.00 | 0.00 | 65 | 1015.1 |
| 20260502054902 | 12 | 162 | 11.3 | 27.4 | 0.00 | 0.00 | 0.00 | 66 | 1015.0 |
| 20260502054357 | 12 | 166 | 22.5 | 27.4 | 0.00 | 0.00 | 0.00 | 67 | 1015.1 |
| 20260502053852 | 12 | 171 | 17.7 | 29.0 | 0.00 | 0.00 | 0.00 | 68 | 1015.1 |
| 20260502053346 | 11 | 180 | 22.5 | 24.1 | 0.00 | 0.00 | 0.00 | 70 | 1015.1 |
| 20260502052841 | 11 | 180 | 17.7 | 17.7 | 0.00 | 0.00 | 0.00 | 73 | 1015.2 |
| 20260502052336 | 11 | 148 | 16.1 | 19.3 | 0.00 | 0.00 | 0.00 | 75 | 1015.2 |
| 20260502051831 | 10 | 175 | 8.0 | 17.7 | 0.00 | 0.00 | 0.00 | 77 | 1015.2 |
| 20260502051326 | 10 | 180 | 12.9 | 16.1 | 0.00 | 0.00 | 0.00 | 80 | 1015.3 |
| 20260502050820 | 9 | 157 | 6.4 | 14.5 | 0.00 | 0.00 | 0.00 | 81 | 1015.3 |
| 20260502050315 | 8 | 180 | 9.7 | 14.5 | 0.00 | 0.00 | 0.00 | 82 | 1015.4 |
| 20260502045810 | 7 | 148 | 6.4 | 6.4 | 0.00 | 0.00 | 0.00 | 82 | 1015.4 |
| 20260502045306 | 6 | 135 | 3.2 | 4.8 | 0.00 | 0.00 | 0.00 | 82 | 1015.4 |
| 20260502044800 | 5 | 175 | 3.2 | 3.2 | 0.00 | 0.00 | 0.00 | 81 | 1015.5 |
| 20260502044254 | 4 | 135 | 0.0 | 1.6 | 0.00 | 0.00 | 0.00 | 80 | 1015.6 |
| 20260502043749 | 4 | 90 | 0.0 | 3.2 | 0.00 | 0.00 | 0.00 | 79 | 1015.5 |
| 20260502043244 | 3 | 13 | 3.2 | 4.8 | 0.00 | 0.00 | 0.00 | 80 | 1015.6 |
| 20260502042739 | 3 | 0 | 4.8 | 4.8 | 0.00 | 0.00 | 0.00 | 79 | 1015.7 |
| 20260502042234 | 3 | 0 | 1.6 | 3.2 | 0.00 | 0.00 | 0.00 | 78 | 1015.7 |
| 20260502041728 | 3 | 45 | 1.6 | 3.2 | 0.00 | 0.00 | 0.00 | 78 | 1015.7 |
| 20260502041223 | 3 | 45 | 1.6 | 1.6 | 0.00 | 0.00 | 0.00 | 78 | 1015.8 |
| 20260502040932 | 3 | 45 | 1.6 | 1.6 | 0.00 | 0.00 | 0.00 | 78 | 1015.8 |
| 20260502040930 | 3 | 45 | 1.6 | 1.6 | 0.00 | 0.00 | 0.00 | 78 | 1015.7 |
| 20260502040928 | 3 | 0 | 3.2 | 4.8 | 0.00 | 0.00 | 0.00 | 78 | 1015.9 |
| 20260502040926 | 3 | 22 | 1.6 | 3.2 | 0.00 | 0.00 | 0.00 | 77 | 1016.0 |
| 20260502040718 | 3 | 45 | 1.6 | 1.6 | 0.00 | 0.00 | 0.00 | 78 | 1015.8 |
| 20260502040213 | 3 | 45 | 1.6 | 1.6 | 0.00 | 0.00 | 0.00 | 78 | 1015.7 |
| 20260502035708 | 3 | 45 | 0.0 | 4.8 | 0.00 | 0.00 | 0.00 | 78 | 1015.9 |
| 20260502035202 | 3 | 0 | 3.2 | 4.8 | 0.00 | 0.00 | 0.00 | 78 | 1015.9 |
| 20260502034657 | 3 | 22 | 1.6 | 3.2 | 0.00 | 0.00 | 0.00 | 77 | 1016.0 |
| 20260502033644 | 3 | 0 | 4.8 | 4.8 | 0.00 | 0.00 | 0.00 | 77 | 1016.1 |
| 20260502033139 | 3 | 45 | 1.6 | 4.8 | 0.00 | 0.00 | 0.00 | 77 | 1016.2 |
| 20260502032633 | 3 | 0 | 4.8 | 4.8 | 0.00 | 0.00 | 0.00 | 77 | 1016.2 |
| 20260502032128 | 3 | 45 | 1.6 | 4.8 | 0.00 | 0.00 | 0.00 | 77 | 1016.3 |
| 20260502031623 | 3 | 9 | 3.2 | 4.8 | 0.00 | 0.00 | 0.00 | 77 | 1016.4 |
| 20260502031118 | 3 | 0 | 3.2 | 4.8 | 0.00 | 0.00 | 0.00 | 76 | 1016.5 |
| 20260502030613 | 3 | 18 | 3.2 | 4.8 | 0.00 | 0.00 | 0.00 | 76 | 1016.5 |
| 20260502030107 | 3 | 0 | 4.8 | 6.4 | 0.00 | 0.00 | 0.00 | 76 | 1016.6 |
| 20260502025602 | 3 | 0 | 3.2 | 6.4 | 0.00 | 0.00 | 0.00 | 76 | 1016.6 |
| 20260502025057 | 3 | 0 | 4.8 | 4.8 | 0.00 | 0.00 | 0.00 | 76 | 1016.6 |
| 20260502024552 | 3 | 0 | 3.2 | 3.2 | 0.00 | 0.00 | 0.00 | 76 | 1016.7 |
| 20260502024047 | 3 | 0 | 1.6 | 3.2 | 0.00 | 0.00 | 0.00 | 76 | 1016.8 |
| 20260502023542 | 3 | 0 | 4.8 | 4.8 | 0.00 | 0.00 | 0.00 | 76 | 1016.8 |
| 20260502023036 | 3 | 0 | 3.2 | 4.8 | 0.00 | 0.00 | 0.00 | 76 | 1017.0 |
| 20260502022531 | 3 | 45 | 1.6 | 3.2 | 0.00 | 0.00 | 0.00 | 76 | 1016.9 |
| 20260502022026 | 3 | 0 | 4.8 | 6.4 | 0.00 | 0.00 | 0.00 | 75 | 1017.0 |
| 20260502021521 | 3 | 0 | 4.8 | 4.8 | 0.00 | 0.00 | 0.00 | 76 | 1017.1 |
| 20260502021016 | 3 | 45 | 3.2 | 4.8 | 0.00 | 0.00 | 0.00 | 75 | 1017.1 |
| 20260502020510 | 3 | 0 | 4.8 | 4.8 | 0.00 | 0.00 | 0.00 | 75 | 1017.2 |
| 20260502020005 | 3 | 45 | 3.2 | 3.2 | 0.00 | 0.00 | 0.00 | 75 | 1017.3 |
| 20260502015500 | 3 | 0 | 1.6 | 6.4 | 0.00 | 0.00 | 0.00 | 75 | 1017.4 |
| 20260502014955 | 3 | 0 | 3.2 | 3.2 | 0.00 | 0.00 | 0.00 | 75 | 1017.5 |
| 20260502014449 | 3 | 45 | 3.2 | 4.8 | 0.00 | 0.00 | 0.00 | 75 | 1017.5 |
| 20260502013944 | 3 | 0 | 4.8 | 6.4 | 0.00 | 0.00 | 0.00 | 75 | 1017.5 |
| 20260502013439 | 3 | 0 | 4.8 | 4.8 | 0.00 | 0.00 | 0.00 | 74 | 1017.6 |
| 20260502012934 | 3 | 0 | 4.8 | 4.8 | 0.00 | 0.00 | 0.00 | 75 | 1017.7 |
| 20260502012429 | 4 | 0 | 3.2 | 4.8 | 0.00 | 0.00 | 0.00 | 75 | 1017.7 |
| 20260502011923 | 4 | 0 | 4.8 | 4.8 | 0.00 | 0.00 | 0.00 | 75 | 1017.9 |
| 20260502011418 | 4 | 0 | 4.8 | 4.8 | 0.00 | 0.00 | 0.00 | 75 | 1017.9 |
| 20260502010913 | 4 | 0 | 4.8 | 4.8 | 0.00 | 0.00 | 0.00 | 74 | 1017.9 |
| 20260502010408 | 3 | 0 | 3.2 | 6.4 | 0.00 | 0.00 | 0.00 | 75 | 1018.1 |
| 20260502005903 | 4 | 0 | 4.8 | 4.8 | 0.00 | 0.00 | 0.00 | 74 | 1018.1 |
| 20260502005357 | 4 | 18 | 3.2 | 4.8 | 0.00 | 0.00 | 0.00 | 74 | 1018.2 |
| 20260502004852 | 4 | 0 | 3.2 | 3.2 | 0.00 | 0.00 | 0.00 | 75 | 1018.3 |
| 20260502004347 | 4 | 4 | 3.2 | 4.8 | 0.00 | 0.00 | 0.00 | 74 | 1018.3 |
| 20260502003842 | 4 | 45 | 3.2 | 6.4 | 0.00 | 0.00 | 0.00 | 74 | 1018.4 |
| 20260502003337 | 4 | 0 | 4.8 | 4.8 | 0.00 | 0.00 | 0.00 | 74 | 1018.4 |
| 20260502002831 | 4 | 45 | 1.6 | 3.2 | 0.00 | 0.00 | 0.00 | 73 | 1018.5 |
| 20260502002326 | 4 | 0 | 1.6 | 3.2 | 0.00 | 0.00 | 0.00 | 74 | 1018.5 |
| 20260502001821 | 4 | 0 | 3.2 | 3.2 | 0.00 | 0.00 | 0.00 | 74 | 1018.6 |
| 20260502001316 | 5 | 0 | 1.6 | 3.2 | 0.00 | 0.00 | 0.00 | 74 | 1018.6 |
| 20260502000811 | 4 | 0 | 4.8 | 4.8 | 0.00 | 0.00 | 0.00 | 74 | 1018.6 |
| 20260502000305 | 4 | 40 | 3.2 | 4.8 | 0.00 | 0.00 | 0.00 | 74 | 1018.7 |
| 20260501235800 | 4 | 0 | 3.2 | 4.8 | 0.00 | 0.00 | 0.00 | 74 | 1018.7 |
| 20260501235255 | 5 | 45 | 3.2 | 3.2 | 0.00 | 0.00 | 0.00 | 74 | 1018.8 |
| 20260501234750 | 5 | 0 | 1.6 | 3.2 | 0.00 | 0.00 | 0.00 | 74 | 1018.8 |
| 20260501234245 | 5 | 0 | 1.6 | 3.2 | 0.00 | 0.00 | 0.00 | 75 | 1018.8 |
| 20260501233739 | 5 | 45 | 3.2 | 3.2 | 0.00 | 0.00 | 0.00 | 75 | 1018.7 |
| 20260501233234 | 5 | 0 | 3.2 | 4.8 | 0.00 | 0.00 | 0.00 | 74 | 1018.8 |
| 20260501232729 | 5 | 0 | 4.8 | 4.8 | 0.00 | 0.00 | 0.00 | 74 | 1019.0 |
| 20260501232224 | 5 | 0 | 3.2 | 4.8 | 0.00 | 0.00 | 0.00 | 74 | 1019.0 |
| 20260501231719 | 5 | 0 | 3.2 | 3.2 | 0.00 | 0.00 | 0.00 | 73 | 1019.0 |
| 20260501231213 | 5 | 90 | 0.0 | 0.0 | 0.00 | 0.00 | 0.00 | 73 | 1019.1 |
| 20260501230708 | 5 | 85 | 0.0 | 0.0 | 0.00 | 0.00 | 0.00 | 74 | 1019.1 |
| 20260501230203 | 5 | 90 | 0.0 | 0.0 | 0.00 | 0.00 | 0.00 | 73 | 1019.2 |
| 20260501225658 | 5 | 0 | 1.6 | 4.8 | 0.00 | 0.00 | 0.00 | 73 | 1019.3 |
| 20260501225153 | 4 | 0 | 4.8 | 4.8 | 0.00 | 0.00 | 0.00 | 72 | 1019.3 |
| 20260501224647 | 4 | 45 | 3.2 | 3.2 | 0.00 | 0.00 | 0.00 | 72 | 1019.3 |
| 20260501224142 | 4 | 45 | 3.2 | 3.2 | 0.00 | 0.00 | 0.00 | 71 | 1019.3 |
| 20260501223637 | 4 | 90 | 0.0 | 0.0 | 0.00 | 0.00 | 0.00 | 70 | 1019.3 |
| 20260501223132 | 5 | 90 | 0.0 | 0.0 | 0.00 | 0.00 | 0.00 | 70 | 1019.3 |
| 20260501222627 | 5 | 135 | 0.0 | 3.2 | 0.00 | 0.00 | 0.00 | 70 | 1019.4 |
| 20260501222121 | 5 | 135 | 1.6 | 1.6 | 0.00 | 0.00 | 0.00 | 70 | 1019.4 |
| 20260501221616 | 5 | 135 | 1.6 | 4.8 | 0.00 | 0.00 | 0.00 | 70 | 1019.4 |
| 20260501221111 | 5 | 135 | 3.2 | 4.8 | 0.00 | 0.00 | 0.00 | 69 | 1019.4 |
| 20260501220606 | 5 | 135 | 6.4 | 6.4 | 0.00 | 0.00 | 0.00 | 69 | 1019.5 |
| 20260501220101 | 5 | 157 | 3.2 | 3.2 | 0.00 | 0.00 | 0.00 | 69 | 1019.4 |
| 20260501215555 | 5 | 180 | 0.0 | 0.0 | 0.00 | 0.00 | 0.00 | 69 | 1019.5 |
| 20260501215050 | 5 | 225 | 0.0 | 0.0 | 0.00 | 0.00 | 0.00 | 69 | 1019.6 |
| 20260501214545 | 6 | 90 | 0.0 | 0.0 | 0.00 | 0.00 | 0.00 | 70 | 1019.6 |
| 20260501214040 | 6 | 45 | 1.6 | 3.2 | 0.00 | 0.00 | 0.00 | 70 | 1019.7 |
| 20260501213535 | 6 | 45 | 1.6 | 4.8 | 0.00 | 0.00 | 0.00 | 70 | 1019.8 |
| 20260501213030 | 5 | 45 | 1.6 | 3.2 | 0.00 | 0.00 | 0.00 | 69 | 1019.9 |
| 20260501212525 | 5 | 0 | 1.6 | 4.8 | 0.00 | 0.00 | 0.00 | 69 | 1019.9 |
| 20260501212019 | 5 | 0 | 3.2 | 4.8 | 0.00 | 0.00 | 0.00 | 68 | 1020.0 |
| 20260501211514 | 5 | 0 | 3.2 | 3.2 | 0.00 | 0.00 | 0.00 | 67 | 1020.0 |
| 20260501211009 | 5 | 90 | 0.0 | 0.0 | 0.00 | 0.00 | 0.00 | 67 | 1020.0 |
| 20260501210503 | 5 | 135 | 0.0 | 0.0 | 0.00 | 0.00 | 0.00 | 67 | 1020.1 |
| 20260501205958 | 5 | 0 | 0.0 | 0.0 | 0.00 | 0.00 | 0.00 | 66 | 1020.1 |
| 20260501205453 | 6 | 0 | 0.0 | 3.2 | 0.00 | 0.00 | 0.00 | 66 | 1020.1 |
| 20260501204948 | 6 | 0 | 1.6 | 3.2 | 0.00 | 0.00 | 0.00 | 64 | 1020.2 |
| 20260501204443 | 6 | 85 | 0.0 | 3.2 | 0.00 | 0.00 | 0.00 | 64 | 1020.3 |
| 20260501203938 | 6 | 135 | 3.2 | 3.2 | 0.00 | 0.00 | 0.00 | 63 | 1020.2 |
| 20260501203432 | 6 | 180 | 4.8 | 6.4 | 0.00 | 0.00 | 0.00 | 63 | 1020.3 |
| 20260501202927 | 6 | 202 | 3.2 | 3.2 | 0.00 | 0.00 | 0.00 | 62 | 1020.4 |
| 20260501202422 | 7 | 180 | 3.2 | 4.8 | 0.00 | 0.00 | 0.00 | 62 | 1020.4 |
| 20260501201917 | 7 | 135 | 1.6 | 3.2 | 0.00 | 0.00 | 0.00 | 61 | 1020.5 |
| 20260501201411 | 7 | 135 | 1.6 | 1.6 | 0.00 | 0.00 | 0.00 | 59 | 1020.5 |
| 20260501200906 | 7 | 135 | 1.6 | 1.6 | 0.00 | 0.00 | 0.00 | 58 | 1020.7 |
| 20260501200401 | 8 | 135 | 1.6 | 3.2 | 0.00 | 0.00 | 0.00 | 58 | 1020.6 |
| 20260501195856 | 8 | 180 | 1.6 | 3.2 | 0.00 | 0.00 | 0.00 | 58 | 1020.7 |
| 20260501195351 | 8 | 180 | 3.2 | 4.8 | 0.00 | 0.00 | 0.00 | 58 | 1020.7 |
| 20260501194845 | 8 | 135 | 1.6 | 3.2 | 0.00 | 0.00 | 0.00 | 58 | 1020.8 |
| 20260501194340 | 8 | 135 | 3.2 | 4.8 | 0.00 | 0.00 | 0.00 | 57 | 1020.8 |
| 20260501193835 | 8 | 135 | 3.2 | 3.2 | 0.00 | 0.00 | 0.00 | 56 | 1020.9 |
| 20260501193330 | 9 | 90 | 1.6 | 4.8 | 0.00 | 0.00 | 0.00 | 56 | 1021.1 |
| 20260501192825 | 9 | 135 | 3.2 | 6.4 | 0.00 | 0.00 | 0.00 | 55 | 1021.1 |
| 20260501192320 | 10 | 180 | 4.8 | 6.4 | 0.00 | 0.00 | 0.00 | 54 | 1021.1 |
| 20260501191814 | 10 | 162 | 4.8 | 6.4 | 0.00 | 0.00 | 0.00 | 54 | 1021.1 |
| 20260501191309 | 10 | 139 | 6.4 | 9.7 | 0.00 | 0.00 | 0.00 | 53 | 1021.2 |
| 20260501190804 | 10 | 148 | 6.4 | 9.7 | 0.00 | 0.00 | 0.00 | 53 | 1021.2 |
| 20260501190259 | 10 | 139 | 4.8 | 8.0 | 0.00 | 0.00 | 0.33 | 52 | 1021.2 |
| 20260501185754 | 10 | 135 | 4.8 | 6.4 | 0.00 | 0.00 | 0.33 | 51 | 1021.2 |
| 20260501185248 | 10 | 135 | 3.2 | 4.8 | 0.00 | 0.00 | 0.33 | 50 | 1021.3 |
| 20260501184743 | 10 | 139 | 3.2 | 4.8 | 0.00 | 0.00 | 0.33 | 49 | 1021.3 |
| 20260501184238 | 10 | 135 | 1.6 | 4.8 | 0.00 | 0.00 | 0.33 | 48 | 1021.3 |
| 20260501183733 | 11 | 135 | 3.2 | 3.2 | 0.00 | 0.00 | 0.33 | 47 | 1021.3 |
| 20260501183228 | 11 | 135 | 4.8 | 6.4 | 0.00 | 0.00 | 0.33 | 47 | 1021.4 |
| 20260501182722 | 11 | 135 | 4.8 | 4.8 | 0.00 | 0.00 | 0.33 | 45 | 1021.3 |
| 20260501182217 | 11 | 135 | 3.2 | 4.8 | 0.00 | 0.00 | 0.33 | 44 | 1021.5 |